George, South Africa

10:38 PM SAST on July 25, 2017 (GMT +0200)
George

Weather History for FAGG - May, 2013

Change the Weather History Date:

Tuesday, May 28, 2013

  Actual Average Record
Temperature  
Mean Temperature 60 °F -  
Max Temperature 71 °F 65 °F 84 °F (2001)
Min Temperature 48 °F 45 °F 42 °F (2001)
Degree Days  
Heating Degree Days 6    
Growing Degree Days 10 (Base 50)    
Moisture  
Dew Point 46 °F    
Average Humidity 66    
Maximum Humidity 94    
Minimum Humidity 30    
Precipitation  
Precipitation 0.00 in - - ()
Sea Level Pressure  
Sea Level Pressure 30.01 in    
Wind  
Wind Speed 6 mph ()    
Max Wind Speed 18 mph    
Max Gust Speed -    
Visibility 8.5 miles    
Events      
Averages and records for this station are not official NWS values.
T = Trace of Precipitation, MM = Missing Value Source: Averaged Metar Reports

Daily Weather History Graph

Daily Weather History Graph

Search for Another Location

Airport or City:

Trip Planner

Search our weather history database for the weather conditions in past years. The results will help you decide how hot, cold, wet, or windy it might be!

Date:

Astronomy

May. 28, 2013 Rise Set
Actual Time 7:24 AM SAST 5:30 PM SAST
Civil Twilight 6:57 AM SAST 5:57 PM SAST
Nautical Twilight 6:26 AM SAST 6:28 PM SAST
Astronomical Twilight 5:56 AM SAST 6:58 PM SAST
Moon 9:20 PM SAST (5/28) 10:23 AM SAST (5/28)
Length of Visible Light 11h 00m
Length of Day
10h 05m
Waning Gibbous, 85% of the Moon is Illuminated
May 28
Waning Gibbous
May 31
Last Quarter
Jun 8
New
Jun 16
First Quarter
Jun 23
Full

Hourly Weather History & Observations

Time (SAST) Temp. Dew Point Humidity Pressure Visibility Wind Dir Wind Speed Gust Speed Precip Events Conditions
12:00 AM 53.6 °F 44.6 °F 72% 30.01 in - NW 3.5 mph - N/A   Clear
1:00 AM 51.8 °F 44.6 °F 76% 30.01 in - North 4.6 mph - N/A   Clear
2:00 AM 50 °F 45 °F 75% 30.03 in 12 mi North 4.6 mph - -  
2:00 AM 50.0 °F 44.6 °F 82% 30.01 in - NNW 4.6 mph - N/A   Clear
3:00 AM 50.0 °F 44.6 °F 82% 30.01 in - NNE 4.6 mph - N/A   Clear
4:00 AM 50.0 °F 42.8 °F 76% 29.98 in - NNE 3.5 mph - N/A   Clear
5:00 AM 51 °F 42 °F 64% 29.99 in 19 mi WNW 5.8 mph - -   Partly Cloudy
5:00 AM 51.8 °F 42.8 °F 71% 29.98 in 6.2 mi WNW 5.8 mph - N/A   Scattered Clouds
6:00 AM 51.8 °F 41.0 °F 67% 29.98 in 6.2 mi NW 8.1 mph - N/A   Partly Cloudy
7:00 AM 51.8 °F 41.0 °F 67% 29.98 in 6.2 mi WNW 8.1 mph - N/A   Partly Cloudy
8:00 AM 53 °F 43 °F 58% 30.02 in 19 mi WNW 8.1 mph - -   Partly Cloudy
8:00 AM 53.6 °F 42.8 °F 67% 30.01 in 6.2 mi WNW 8.1 mph - N/A   Scattered Clouds
9:00 AM 59.0 °F 46.4 °F 63% 30.01 in 6.2 mi WNW 6.9 mph - N/A   Partly Cloudy
10:00 AM 64.4 °F 44.6 °F 49% 30.01 in 6.2 mi WNW 9.2 mph - N/A   Partly Cloudy
11:00 AM 68 °F 44 °F 31% 30.01 in 19 mi WNW 15.0 mph - -   Scattered Clouds
11:00 AM 68.0 °F 44.6 °F 43% 30.01 in 6.2 mi WNW 16.1 mph - N/A   Partly Cloudy
12:00 PM 68.0 °F 42.8 °F 40% 30.01 in 6.2 mi WNW 18.4 mph - N/A   Partly Cloudy
1:00 PM 69.8 °F 44.6 °F 40% 30.01 in 6.2 mi West 18.4 mph - N/A   Scattered Clouds
2:00 PM 70 °F 46 °F 30% 29.99 in 12 mi WNW 15.0 mph - -   Partly Cloudy
2:00 PM 69.8 °F 46.4 °F 43% 29.98 in 6.2 mi WNW 15.0 mph - N/A   Scattered Clouds
4:00 PM 68.0 °F 44.6 °F 43% 29.98 in 6.2 mi West 11.5 mph - N/A   Mostly Cloudy
5:00 PM 60.8 °F 55.4 °F 82% 30.01 in 6.2 mi South 16.1 mph - N/A   Mostly Cloudy
6:00 PM 59.0 °F 53.6 °F 82% 30.04 in 6.2 mi Variable 2.3 mph - N/A   Mostly Cloudy
7:00 PM 59.0 °F 53.6 °F 82% 30.04 in 6.2 mi East 2.3 mph - N/A   Mostly Cloudy
8:00 PM 56 °F 52 °F 82% 30.06 in 12 mi North 3.5 mph - -   Partly Cloudy
8:00 PM 55.4 °F 53.6 °F 94% 30.04 in 6.2 mi North 3.5 mph - N/A   Scattered Clouds
9:00 PM 53.6 °F 51.8 °F 94% 30.06 in 6.2 mi NNW 3.5 mph - N/A   Scattered Clouds
10:00 PM 57.2 °F 51.8 °F 82% 30.06 in 6.2 mi NW 3.5 mph - N/A   Mostly Cloudy
11:00 PM 57.2 °F 51.8 °F 82% 30.06 in 6.2 mi WNW 5.8 mph - N/A   Mostly Cloudy